Date,TemperatureHighF,TemperatureAvgF,TemperatureLowF,DewpointHighF,DewpointAvgF,DewpointLowF,HumidityHigh,HumidityAvg,HumidityLow,PressureMaxIn,PressureMinIn,WindSpeedMaxMPH,WindSpeedAvgMPH,GustSpeedMaxMPH,PrecipitationSumIn
2012-1-1,72.0,47.5,31.0,45.0,38.3,30.0,99,76,25,30.09,30.02,1,0,7,0.00
2012-1-2,57.0,50.1,42.0,50.0,45.8,40.0,94,86,77,30.23,30.13,2,0,6,0.00
2012-1-3,65.0,49.6,34.0,49.0,42.9,33.0,99,80,52,30.27,30.18,2,0,5,0.00
2012-1-4,70.0,49.0,35.0,47.0,20.1,-99.9,99,54,33,30.31,30.20,3,-98,6,0.00
2012-1-5,68.0,55.2,37.0,49.0,42.4,34.0,98,66,35,30.22,30.06,4,1,7,0.00
2012-1-6,56.0,42.9,31.0,43.0,37.9,30.0,99,84,60,30.10,30.03,3,0,7,0.01
2012-1-7,68.0,54.3,37.0,41.0,27.6,15.0,97,45,17,30.17,30.07,8,1,17,0.00
2012-1-8,66.0,52.3,36.0,40.0,31.5,21.0,77,48,29,30.14,30.09,0,0,4,0.00
2012-1-9,64.0,45.7,30.0,40.0,35.1,28.0,92,70,40,30.16,30.08,1,0,7,0.00
2012-1-10,64.0,49.6,31.0,44.0,36.9,29.0,96,66,39,30.08,30.00,3,0,6,0.00
2012-1-11,69.0,49.7,31.0,43.0,36.5,29.0,92,66,31,30.04,29.93,1,0,5,0.00
2012-1-12,69.0,51.6,30.0,39.0,35.3,28.0,91,58,27,30.02,29.96,3,0,6,0.01
2012-1-13,69.0,49.8,29.0,40.0,32.4,25.0,86,57,20,30.13,30.06,2,0,11,0.00
2012-1-14,68.0,49.5,29.0,38.0,32.7,24.0,82,57,30,30.10,30.00,1,0,5,0.00
2012-1-15,54.0,43.5,32.0,38.0,33.5,29.0,96,70,46,29.99,29.88,2,1,12,0.00
2012-1-16,52.0,40.0,22.0,24.0,20.0,13.0,89,50,21,30.20,30.13,3,0,7,0.00
2012-1-17,52.0,38.2,21.0,33.0,28.5,19.0,95,71,46,30.31,30.22,2,0,7,0.00
2012-1-18,52.0,44.9,32.0,42.0,38.4,31.0,96,79,65,30.30,30.20,5,1,11,0.00
2012-1-19,48.0,46.9,45.0,47.0,45.9,44.0,97,97,96,30.09,29.93,1,0,7,0.49
2012-1-20,56.0,53.6,52.0,55.0,52.7,51.0,99,97,97,29.90,29.60,4,0,9,2.09
2012-1-21,52.0,46.2,38.0,44.0,40.8,36.0,96,82,65,30.03,29.75,7,1,16,0.05
2012-1-22,50.0,46.0,42.0,49.0,45.1,41.0,99,97,95,30.03,29.78,4,1,14,0.82
2012-1-23,56.0,48.6,40.0,49.0,44.8,39.0,97,87,74,29.94,29.62,2,0,6,0.00
2012-1-24,59.0,50.7,40.0,49.0,45.4,40.0,99,83,63,30.29,30.17,3,0,6,0.00
2012-1-25,64.0,56.9,46.0,56.0,52.2,46.0,99,85,71,30.35,30.24,3,0,6,0.00
2012-1-26,65.0,57.7,53.0,57.0,54.2,53.0,99,88,67,30.24,30.15,3,1,11,0.01
2012-1-27,69.0,45.1,31.0,40.0,30.3,19.0,91,65,15,30.20,30.13,2,0,7,0.00
2012-1-28,66.0,54.6,38.0,42.0,37.4,33.0,87,56,31,30.24,30.15,4,1,7,0.00
2012-1-29,67.0,52.3,31.0,48.0,40.5,29.0,96,68,40,30.18,30.06,2,0,8,0.00
2012-1-30,60.0,49.1,37.0,47.0,42.2,35.0,97,78,59,30.00,29.92,4,0,7,0.00
2012-1-31,56.0,47.3,40.0,47.0,44.2,39.0,99,90,72,30.07,29.99,3,1,11,0.00
2012-2-1,60.0,52.0,45.0,50.0,47.1,43.0,99,85,58,30.18,30.10,3,0,7,0.00
2012-2-2,74.0,56.1,35.0,51.0,34.1,22.0,99,55,15,30.09,29.88,4,0,10,0.01
2012-2-3,67.0,49.9,32.0,41.0,31.4,22.0,91,58,19,29.96,29.91,4,0,8,0.00
2012-2-4,67.0,53.1,36.0,42.0,34.3,31.0,84,54,27,29.99,29.96,4,0,8,0.00
2012-2-5,67.0,52.9,34.0,45.0,36.7,29.0,90,60,26,30.02,29.91,3,0,6,0.00
2012-2-6,68.0,57.7,42.0,36.0,34.1,31.0,72,42,28,29.84,29.68,8,0,11,0.00
2012-2-7,52.0,50.4,48.0,51.0,49.4,47.0,98,97,95,29.97,29.72,0,0,2,0.24
2012-2-8,62.0,49.1,38.0,54.0,46.0,37.0,100,90,63,30.15,30.10,2,0,5,0.00
2012-2-9,73.0,56.8,39.0,53.0,47.8,39.0,100,75,43,30.18,30.06,4,0,7,0.00
2012-2-10,56.0,51.2,44.0,54.0,50.2,44.0,99,96,89,30.10,29.99,2,0,8,0.09
2012-2-11,61.0,52.6,45.0,52.0,48.1,43.0,99,85,65,29.98,29.89,4,1,9,0.00
2012-2-12,56.0,47.6,33.0,46.0,42.2,32.0,99,82,62,29.97,29.89,5,1,11,0.05
2012-2-13,56.0,47.4,40.0,43.0,41.0,37.0,96,80,60,29.88,29.79,5,1,12,0.01
2012-2-14,61.0,48.2,31.0,43.0,38.0,30.0,98,70,44,30.00,29.92,4,1,10,0.00
2012-2-15,61.0,48.9,32.0,34.0,26.5,17.0,95,47,20,30.07,29.99,5,1,12,0.00
2012-2-16,68.0,56.2,34.0,43.0,31.7,22.0,81,43,20,30.16,30.09,4,0,13,0.00
2012-2-17,67.0,53.6,36.0,52.0,44.9,34.0,98,75,50,30.17,30.07,5,0,10,0.00
2012-2-18,60.0,53.1,44.0,47.0,39.5,35.0,95,62,39,30.09,30.01,5,2,17,0.00
2012-2-19,58.0,48.3,33.0,38.0,33.3,23.0,95,60,27,30.05,29.93,5,1,13,0.00
2012-2-20,57.0,49.1,44.0,49.0,40.4,-99.9,97,79,66,30.10,30.04,3,-35,6,0.00
2012-2-21,71.0,58.0,38.0,57.0,48.2,37.0,99,73,49,30.21,30.15,2,0,7,0.00
2012-2-22,77.0,63.9,40.0,53.0,43.4,34.0,100,54,22,30.21,30.05,6,1,13,0.01
2012-2-23,79.0,64.8,40.0,41.0,29.5,15.0,96,35,10,30.01,29.91,7,2,18,0.00
2012-2-24,74.0,60.5,39.0,42.0,37.0,29.0,81,46,20,30.05,29.94,5,2,13,0.00
2012-2-25,59.0,51.6,40.0,34.0,31.2,28.0,77,47,33,30.24,30.14,5,2,13,0.00
2012-2-26,58.0,46.2,25.0,33.0,28.5,23.0,96,55,27,30.00,29.77,4,1,10,0.00
2012-2-27,56.0,45.7,25.0,34.0,31.5,24.0,97,60,36,29.77,29.69,5,1,12,0.00
2012-2-28,50.0,41.6,28.0,44.0,36.6,27.0,97,83,56,30.10,29.99,6,2,12,0.01
2012-2-29,49.0,44.5,40.0,43.0,40.7,38.0,96,87,73,30.09,29.93,5,1,15,0.96
2012-3-1,56.0,48.5,38.0,49.0,42.4,35.0,98,81,53,30.13,30.05,5,1,16,0.22
2012-3-2,69.0,53.7,28.0,44.0,31.4,20.0,98,51,19,30.26,30.19,4,1,9,0.02
2012-3-3,71.0,57.8,33.0,47.0,42.9,32.0,99,62,37,30.25,30.16,3,0,8,0.00
2012-3-4,75.0,62.4,38.0,51.0,46.7,37.0,99,61,40,30.13,29.99,3,1,11,0.00
2012-3-5,72.0,57.9,38.0,49.0,42.4,35.0,100,61,28,30.00,29.89,6,1,12,0.00
2012-3-6,58.0,49.1,40.0,31.0,26.5,19.0,70,43,22,29.94,29.87,8,3,20,0.00
2012-3-7,70.0,55.6,32.0,33.0,19.0,10.0,69,29,12,30.08,30.02,7,2,17,0.00
2012-3-8,70.0,57.1,30.0,43.0,32.9,27.0,88,46,23,30.22,30.15,6,1,11,0.00
2012-3-9,72.0,59.7,37.0,41.0,36.4,30.0,96,47,21,30.23,30.08,6,1,11,0.00
2012-3-10,59.0,51.4,34.0,47.0,43.5,33.0,96,75,60,30.00,29.88,6,2,16,0.00
2012-3-11,56.0,49.1,41.0,49.0,43.5,38.0,97,82,54,29.96,29.90,6,1,18,0.13
2012-3-12,55.0,48.4,34.0,42.0,39.1,34.0,99,72,55,29.93,29.83,4,1,13,0.00
2012-3-13,53.0,51.5,49.0,52.0,50.5,48.0,97,96,96,29.84,29.75,6,3,18,2.04
2012-3-14,55.0,26.1,52.0,54.0,-25.1,-99.9,98,48,97,29.98,29.89,2,-507,7,0.19
2012-3-15,57.0,54.4,51.0,54.0,52.3,50.0,98,93,86,30.06,29.96,3,0,11,0.05
2012-3-16,55.0,52.1,49.0,55.0,51.4,48.0,99,97,95,29.85,29.63,6,1,17,1.25
2012-3-17,54.0,44.6,35.0,42.0,36.8,31.0,99,77,48,29.52,29.40,5,1,16,0.00
2012-3-18,52.0,45.9,38.0,35.0,31.2,25.0,84,58,37,29.74,29.61,5,2,18,0.00
2012-3-19,54.0,45.9,31.0,40.0,33.9,30.0,96,66,43,29.99,29.88,3,1,10,0.00
2012-3-20,56.0,50.2,43.0,49.0,40.5,-99.9,89,75,65,30.11,30.03,2,0,6,0.00
2012-3-21,65.0,58.6,45.0,53.0,50.0,44.0,97,75,53,30.04,29.89,5,1,11,0.00
2012-3-22,60.0,50.2,44.0,46.0,37.3,-99.9,97,67,35,29.89,29.81,6,-11,13,0.02
2012-3-23,57.0,46.1,31.0,43.0,35.5,30.0,99,70,41,29.98,29.86,5,1,13,0.00
2012-3-24,46.0,43.0,38.0,44.0,41.3,37.0,96,94,89,29.81,29.73,1,0,5,0.54
2012-3-25,57.0,48.4,40.0,43.0,41.0,39.0,98,77,57,29.78,29.71,2,0,8,0.01
2012-3-26,53.0,46.8,31.0,44.0,39.4,31.0,99,77,58,29.98,29.90,4,1,11,0.00
2012-3-27,54.0,50.0,47.0,53.0,48.5,45.0,97,95,89,29.83,29.75,6,2,19,1.55
2012-3-28,62.0,55.3,47.0,51.0,44.3,39.0,96,69,45,30.01,29.90,6,1,14,0.00
2012-3-29,55.0,52.5,45.0,51.0,49.5,45.0,99,89,76,30.03,29.97,4,0,10,0.02
2012-3-30,56.0,54.3,53.0,55.0,53.3,51.0,99,97,94,29.95,29.83,3,0,11,0.07
2012-3-31,54.0,49.2,43.0,52.0,44.3,41.0,96,84,63,29.78,29.59,8,2,18,0.66
2012-4-1,60.0,51.8,38.0,40.0,36.9,34.0,91,59,38,30.17,30.09,4,1,13,0.00
2012-4-2,62.0,51.4,34.0,46.0,39.6,34.0,99,68,39,30.11,29.97,4,1,11,0.00
2012-4-3,57.0,48.1,37.0,50.0,44.2,36.0,99,87,64,30.01,29.90,5,1,11,0.03
2012-4-4,58.0,47.3,32.0,41.0,33.4,28.0,99,63,31,30.10,30.03,5,2,14,0.00
2012-4-5,53.0,41.5,28.0,33.0,30.6,27.0,96,69,37,30.03,30.00,3,1,12,0.00
2012-4-6,60.0,49.7,28.0,36.0,32.9,27.0,98,57,35,30.17,30.08,7,1,13,0.00
2012-4-7,67.0,56.7,32.0,44.0,35.6,31.0,96,50,27,30.03,29.93,5,1,12,0.00
2012-4-8,66.0,54.7,32.0,45.0,37.8,29.0,97,56,32,29.96,29.92,7,1,13,0.00
2012-4-9,72.0,59.3,36.0,45.0,31.5,13.0,96,44,11,29.89,29.73,6,1,13,0.00
2012-4-10,54.0,51.9,50.0,52.0,50.6,49.0,98,95,92,29.79,29.72,1,0,8,0.38
2012-4-11,55.0,50.9,44.0,51.0,45.9,43.0,99,84,66,29.84,29.71,5,2,17,0.24
2012-4-12,56.0,50.6,43.0,49.0,42.7,37.0,99,76,49,29.91,29.76,8,2,17,0.10
2012-4-13,56.0,45.9,40.0,47.0,30.0,-99.9,97,67,53,29.73,29.61,8,-71,17,0.03
2012-4-14,67.0,55.4,35.0,47.0,40.5,33.0,95,60,36,29.95,29.81,5,2,11,0.00
2012-4-15,65.0,57.2,38.0,51.0,47.9,37.0,100,73,56,30.13,30.07,6,2,13,0.00
2012-4-16,67.0,54.3,38.0,49.0,43.7,34.0,99,71,33,30.14,30.09,5,1,12,0.00
2012-4-17,64.0,53.4,40.0,53.0,47.9,39.0,99,83,68,30.08,29.99,6,2,12,0.00
2012-4-18,71.0,63.1,44.0,53.0,49.3,43.0,98,62,50,30.06,30.00,7,2,17,0.00
2012-4-19,79.0,61.7,46.0,62.0,44.9,-99.9,99,66,50,30.09,29.99,5,-67,8,0.00
2012-4-20,88.0,75.5,52.0,61.0,55.8,51.0,99,55,28,29.98,29.88,5,1,11,0.00
2012-4-21,88.0,75.9,50.0,61.0,56.8,48.0,93,55,35,29.87,29.78,4,1,8,0.00
2012-4-22,81.0,67.9,51.0,61.0,46.7,-99.9,96,55,47,29.82,29.78,6,-60,12,0.00
2012-4-23,60.0,55.3,51.0,53.0,51.4,49.0,96,87,73,29.89,29.83,6,1,13,0.03
2012-4-24,66.0,60.0,55.0,57.0,54.8,52.0,98,83,72,29.97,29.88,6,1,11,0.09
2012-4-25,66.0,60.9,54.0,55.0,53.1,52.0,96,76,64,29.85,29.72,3,1,10,0.00
2012-4-26,62.0,54.9,44.0,50.0,42.3,36.0,95,66,39,30.10,29.75,9,2,19,0.00
2012-4-27,70.0,57.5,35.0,44.0,39.8,34.0,99,57,32,30.15,30.04,5,1,11,0.00
2012-4-28,78.0,60.6,43.0,56.0,46.0,-99.9,97,65,45,30.00,29.80,2,0,7,0.00
2012-4-29,69.0,56.9,45.0,54.0,49.9,44.0,99,80,58,29.83,29.81,3,0,7,0.00
2012-4-30,82.0,72.1,48.0,53.0,49.7,46.0,98,48,34,29.88,29.81,5,2,18,0.00
2012-5-1,74.0,59.5,39.0,48.0,43.2,38.0,99,60,32,29.82,29.75,6,2,13,0.00
2012-5-2,67.0,56.6,35.0,47.0,42.6,34.0,99,61,43,29.85,29.79,7,2,16,0.00
2012-5-3,56.0,52.4,46.0,55.0,51.3,44.0,97,96,94,29.96,29.85,5,1,12,0.05
2012-5-4,67.0,57.4,45.0,46.0,43.7,42.0,93,63,41,30.09,30.01,7,2,13,0.00
2012-5-5,78.0,64.6,37.0,45.0,36.1,22.0,99,44,13,30.13,29.98,3,1,10,0.00
2012-5-6,85.0,74.3,45.0,51.0,39.2,32.0,83,33,16,29.99,29.92,3,0,9,0.00
2012-5-7,87.0,75.6,43.0,48.0,40.1,35.0,95,37,16,29.93,29.87,5,1,11,0.00
2012-5-8,87.0,74.4,45.0,52.0,46.7,42.0,92,43,23,29.87,29.82,5,1,13,0.00
2012-5-9,82.0,71.0,45.0,57.0,51.5,43.0,98,54,31,29.85,29.78,6,1,12,0.00
2012-5-10,81.0,69.8,40.0,50.0,44.2,39.0,97,45,26,29.82,29.75,4,1,11,0.00
2012-5-11,85.0,72.4,43.0,51.0,43.9,35.0,95,42,18,29.85,29.79,5,1,12,0.00
2012-5-12,83.0,69.9,43.0,56.0,50.7,41.0,95,54,28,29.95,29.91,4,1,8,0.00
2012-5-13,64.0,55.4,46.0,51.0,48.4,45.0,98,78,61,30.00,29.93,7,1,13,0.00
2012-5-14,67.0,60.2,45.0,52.0,49.1,44.0,98,68,55,30.00,29.95,5,2,13,0.00
2012-5-15,71.0,62.7,44.0,55.0,51.1,43.0,99,67,54,29.95,29.88,6,2,12,0.00
2012-5-16,74.0,63.4,47.0,57.0,52.7,46.0,98,70,54,29.93,29.83,6,2,13,0.00
2012-5-17,74.0,60.2,47.0,51.0,47.2,45.0,97,66,35,29.80,29.72,5,1,22,0.00
2012-5-18,79.0,69.1,41.0,49.0,44.1,39.0,94,43,27,29.88,29.81,6,2,13,0.00
2012-5-19,81.0,69.4,40.0,52.0,46.2,38.0,94,47,27,29.89,29.84,5,1,10,0.00
2012-5-20,84.0,71.6,46.0,55.0,48.7,42.0,88,48,30,29.89,29.82,5,1,13,0.00
2012-5-21,72.0,64.5,43.0,56.0,52.5,41.0,97,66,52,29.96,29.92,7,2,14,0.00
2012-5-22,79.0,68.9,46.0,54.0,48.6,45.0,99,53,33,30.03,29.95,9,2,17,0.00
2012-5-23,74.0,65.6,51.0,47.0,44.6,42.0,84,49,32,29.95,29.83,7,2,17,0.00
2012-5-24,72.0,62.8,40.0,46.0,43.1,38.0,94,50,36,29.79,29.64,7,3,24,0.00
2012-5-25,67.0,58.2,46.0,50.0,41.0,37.0,72,54,35,29.67,29.61,6,1,17,0.01
2012-5-26,70.0,62.0,39.0,51.0,47.7,38.0,99,61,43,29.88,29.75,5,1,14,0.01
2012-5-27,69.0,61.7,47.0,53.0,49.6,46.0,96,66,53,30.03,29.98,7,2,14,0.00
2012-5-28,69.0,61.7,47.0,51.0,48.6,46.0,97,63,49,29.96,29.89,5,2,13,0.00
2012-5-29,74.0,63.7,39.0,54.0,49.4,38.0,98,63,46,29.96,29.92,6,1,12,0.00
2012-5-30,82.0,70.9,44.0,56.0,51.7,43.0,98,54,35,29.99,29.92,3,1,11,0.00
2012-5-31,86.0,69.3,47.0,57.0,52.3,45.0,96,60,30,29.92,29.77,3,0,8,0.00
2012-6-1,92.0,78.4,53.0,59.0,55.5,51.0,94,48,31,29.76,29.67,5,1,12,0.00
2012-6-2,86.0,77.5,57.0,60.0,52.2,37.0,89,45,21,29.81,29.77,9,2,18,0.00
2012-6-3,78.0,68.9,47.0,52.0,47.8,45.0,92,49,32,29.84,29.79,8,2,14,0.00
2012-6-4,63.0,57.3,54.0,55.0,50.4,44.0,96,79,59,29.92,29.80,6,2,19,0.05
2012-6-5,70.0,60.7,37.0,43.0,39.9,36.0,97,50,30,30.09,30.02,7,2,16,0.00
2012-6-6,77.0,65.9,39.0,47.0,42.0,37.0,97,46,26,30.00,29.86,5,1,13,0.00
2012-6-7,80.0,70.3,42.0,53.0,47.1,40.0,93,46,27,29.92,29.86,7,2,15,0.00
2012-6-8,76.0,65.3,44.0,47.0,42.3,36.0,95,48,25,29.90,29.81,8,2,20,0.00
2012-6-9,82.0,68.4,38.0,40.0,30.3,19.0,89,33,10,29.92,29.82,5,1,11,0.00
2012-6-10,91.0,78.7,47.0,45.0,38.1,31.0,67,27,12,29.81,29.78,5,1,12,0.00
2012-6-11,91.0,81.2,50.0,52.0,46.7,43.0,82,34,20,29.87,29.82,5,1,12,0.00
2012-6-12,90.0,79.4,49.0,55.0,51.7,45.0,88,41,27,29.88,29.80,12,2,20,0.00
2012-6-13,88.0,77.2,50.0,58.0,54.7,48.0,93,49,29,29.78,29.64,6,1,12,0.00
2012-6-14,89.0,76.7,48.0,54.0,49.1,40.0,91,41,24,29.70,29.66,5,1,13,0.00
2012-6-15,90.0,80.8,58.0,56.0,49.2,43.0,57,34,25,29.71,29.67,7,2,14,0.00
2012-6-16,100.0,87.0,55.0,58.0,50.2,-99.9,87,35,17,29.76,29.70,3,1,11,0.00
2012-6-17,79.0,73.1,57.0,56.0,54.0,51.0,83,52,43,29.82,29.73,6,2,13,0.00
2012-6-18,73.0,60.2,49.0,55.0,51.4,48.0,98,76,51,29.81,29.75,5,1,12,0.00
2012-6-19,73.0,73.0,73.0,51.0,51.0,51.0,46,46,46,29.75,29.75,0,0,0,0.00
2012-6-20,90.0,76.4,48.0,51.0,46.7,41.0,89,42,19,29.75,29.70,6,1,13,0.00
2012-6-21,67.0,59.4,47.0,52.0,49.6,45.0,96,71,56,29.80,29.73,8,3,19,0.00
2012-6-22,62.0,55.4,43.0,53.0,50.5,42.0,97,84,72,29.88,29.81,4,1,13,0.00
2012-6-23,66.0,58.7,42.0,48.0,45.7,41.0,98,63,46,29.82,29.76,7,2,19,0.00
2012-6-24,70.0,61.1,40.0,47.0,44.5,39.0,98,57,43,29.93,29.89,8,2,16,0.00
2012-6-25,68.0,60.9,38.0,50.0,47.1,37.0,97,62,46,29.98,29.93,8,3,16,0.00
2012-6-26,77.0,69.1,39.0,51.0,47.5,38.0,98,49,35,29.96,29.81,6,2,13,0.00
2012-6-27,81.0,72.7,43.0,47.0,42.3,39.0,92,38,22,29.81,29.79,6,1,13,0.00
2012-6-28,80.0,70.0,45.0,54.0,49.7,42.0,92,51,34,29.95,29.88,8,2,14,0.00
2012-6-29,74.0,67.1,47.0,57.0,55.0,46.0,98,67,54,30.00,29.93,8,2,13,0.00
2012-6-30,74.0,71.6,69.0,61.0,60.7,60.0,74,69,65,29.85,29.85,5,4,14,0.00
2012-7-1,78.0,67.9,58.0,61.0,59.3,57.0,96,76,56,29.87,29.78,5,1,11,0.01
2012-7-2,83.0,74.1,51.0,61.0,57.5,49.0,96,59,42,29.78,29.74,7,1,13,0.00
2012-7-4,81.0,72.1,49.0,57.0,53.5,47.0,92,54,41,29.75,29.72,7,1,11,0.00
2012-7-5,54.0,53.2,52.0,52.0,51.3,51.0,96,93,90,29.84,29.82,0,0,1,0.00
2012-7-6,76.0,76.0,76.0,49.0,49.0,49.0,38,38,38,29.87,29.87,2,2,5,0.00
2012-7-7,92.0,79.9,47.0,55.0,48.5,41.0,93,38,19,29.89,29.83,5,1,11,0.00
2012-7-8,85.0,73.1,45.0,54.0,48.0,40.0,87,45,24,29.91,29.87,7,2,12,0.00
2012-7-9,85.0,71.9,42.0,57.0,49.2,39.0,95,51,25,29.93,29.85,6,2,11,0.00
2012-7-10,93.0,81.8,47.0,58.0,51.4,43.0,94,40,19,29.84,29.75,6,1,12,0.00
2012-7-12,92.0,86.0,75.0,59.0,56.1,51.0,51,37,25,29.75,29.69,5,2,8,0.00
2012-7-13,77.0,66.2,47.0,54.0,51.7,44.0,94,61,44,29.78,29.75,10,2,14,0.00
2012-7-15,79.0,68.8,51.0,58.0,54.9,50.0,97,64,45,29.81,29.74,9,2,13,0.00
2012-7-16,68.0,56.8,49.0,53.0,50.6,48.0,96,81,57,29.79,29.73,5,1,14,0.01
2012-7-17,62.0,58.6,54.0,54.0,52.7,52.0,94,81,71,29.90,29.83,4,0,7,0.00
2012-7-18,72.0,60.8,45.0,55.0,51.9,44.0,98,74,54,29.93,29.87,5,1,11,0.00
2012-7-19,75.0,65.1,52.0,56.0,53.7,51.0,97,69,50,29.95,29.90,6,1,11,0.00
2012-7-20,90.0,76.0,47.0,57.0,52.8,46.0,98,51,27,29.98,29.89,10,2,12,0.00
2012-7-21,95.0,83.9,53.0,59.0,52.8,48.0,94,40,22,29.89,29.79,6,1,12,0.00
2012-7-22,94.0,82.4,51.0,59.0,52.6,45.0,90,40,19,29.81,29.75,5,1,11,0.00
2012-7-23,84.0,71.9,52.0,57.0,54.4,48.0,88,56,40,29.82,29.79,5,1,11,0.00
2012-7-24,74.0,61.1,52.0,54.0,52.3,50.0,94,74,49,29.88,29.83,5,0,7,0.00
2012-7-25,75.0,67.2,52.0,55.0,53.4,50.0,93,63,49,29.91,29.85,8,1,12,0.00
2012-7-26,72.0,61.6,50.0,54.0,52.0,49.0,97,72,52,29.91,29.84,7,2,14,0.00
2012-7-27,78.0,65.5,49.0,58.0,53.6,48.0,98,68,46,29.92,29.87,10,1,11,0.00
2012-7-28,86.0,73.2,44.0,56.0,52.8,43.0,98,53,32,29.93,29.87,7,2,11,0.00
2012-7-29,85.0,74.0,46.0,58.0,53.8,45.0,97,53,33,29.93,29.85,5,1,13,0.00
2012-7-30,92.0,79.9,49.0,60.0,53.9,47.0,96,46,26,29.88,29.79,5,1,11,0.00
2012-7-31,92.0,80.4,51.0,57.0,52.2,47.0,89,42,25,29.88,29.84,7,1,13,0.00
2012-8-1,86.0,74.9,47.0,57.0,52.2,44.0,95,50,27,29.94,29.87,5,1,14,0.00
2012-8-2,91.0,77.1,46.0,56.0,52.4,44.0,93,46,28,29.89,29.79,9,1,11,0.00
2012-8-3,83.0,69.1,48.0,57.0,53.8,47.0,96,62,41,29.79,29.72,7,2,11,0.00
2012-8-4,68.0,59.9,50.0,56.0,53.1,49.0,97,79,65,29.86,29.76,5,1,13,0.00
2012-8-5,73.0,65.5,56.0,59.0,56.8,55.0,97,75,61,29.97,29.91,6,2,13,0.00
2012-8-6,85.0,70.7,54.0,60.0,54.0,48.0,97,61,31,30.03,29.95,6,1,11,0.00
2012-8-7,90.0,79.0,50.0,54.0,49.7,45.0,97,41,22,29.96,29.89,7,2,12,0.00
2012-8-8,95.0,81.2,47.0,54.0,48.5,43.0,87,37,20,29.91,29.82,7,1,11,0.00
2012-8-9,98.0,82.9,50.0,56.0,48.7,43.0,82,36,17,29.84,29.74,7,1,12,0.00
2012-8-10,95.0,82.0,53.0,55.0,50.4,47.0,84,39,20,29.75,29.65,6,1,12,0.00
2012-8-11,97.0,80.0,50.0,57.0,52.4,46.0,91,44,23,29.71,29.66,5,1,10,0.00
2012-8-12,88.0,70.5,46.0,53.0,47.0,42.0,90,50,22,29.76,29.70,5,1,12,0.00
2012-8-13,95.0,81.1,51.0,54.0,48.8,43.0,74,36,20,29.75,29.69,7,2,11,0.00
2012-8-14,84.0,73.0,55.0,54.0,48.8,43.0,68,45,26,29.74,29.70,5,1,11,0.00
2012-8-15,78.0,65.6,55.0,57.0,53.1,51.0,93,67,42,29.77,29.74,4,1,10,0.00
2012-8-16,86.0,73.7,52.0,55.0,52.5,48.0,93,51,28,29.86,29.79,6,2,13,0.00
2012-8-17,84.0,71.8,48.0,55.0,52.4,47.0,96,55,33,29.90,29.81,7,1,12,0.00
2012-8-18,90.0,79.5,56.0,54.0,50.6,48.0,79,39,26,29.87,29.79,5,1,12,0.00
2012-8-19,82.0,74.9,48.0,55.0,52.4,46.0,92,48,34,29.86,29.79,6,2,11,0.00
2012-8-20,89.0,74.0,46.0,56.0,51.4,44.0,95,50,27,29.83,29.75,6,2,12,0.00
2012-8-21,86.0,75.3,45.0,56.0,52.0,43.0,96,48,31,29.81,29.74,6,2,11,0.00
2012-8-22,82.0,66.9,45.0,57.0,53.2,43.0,97,65,39,29.83,29.78,5,1,11,0.00
2012-8-23,80.0,68.2,46.0,57.0,53.5,45.0,97,63,42,29.85,29.75,5,2,12,0.00
2012-8-24,83.0,69.2,45.0,57.0,53.4,44.0,98,60,39,29.80,29.75,6,2,13,0.00
2012-8-25,73.0,61.8,48.0,54.0,51.0,47.0,97,70,49,29.78,29.70,7,2,12,0.00
2012-8-26,75.0,62.8,51.0,53.0,50.7,49.0,97,68,44,29.87,29.78,6,1,12,0.00
2012-8-27,82.0,65.7,45.0,57.0,52.1,44.0,98,65,40,29.96,29.87,5,1,10,0.00
2012-8-28,88.0,75.9,50.0,55.0,49.5,43.0,96,45,23,29.94,29.85,7,1,14,0.00
2012-8-29,93.0,80.0,45.0,51.0,46.8,41.0,95,36,18,29.84,29.72,6,1,14,0.00
2012-8-30,85.0,71.4,48.0,52.0,47.7,40.0,77,46,27,29.72,29.67,5,1,12,0.00
2012-8-31,69.0,59.3,50.0,54.0,51.1,48.0,94,75,56,29.83,29.76,5,2,12,0.00
2012-9-1,78.0,65.2,49.0,56.0,52.9,48.0,97,67,45,29.94,29.87,5,1,10,0.00
2012-9-2,88.0,74.4,44.0,54.0,45.5,34.0,98,43,16,29.89,29.81,5,1,9,0.00
2012-9-3,91.0,76.2,46.0,49.0,44.9,39.0,82,38,17,29.88,29.82,5,1,11,0.00
2012-9-4,85.0,70.0,43.0,53.0,48.9,39.0,87,51,31,29.91,29.86,6,2,11,0.00
2012-9-5,77.0,62.7,44.0,54.0,50.0,43.0,97,66,45,29.89,29.83,6,1,17,0.00
2012-9-6,78.0,65.1,47.0,51.0,48.8,46.0,98,60,35,29.89,29.86,4,1,13,0.00
2012-9-7,81.0,65.6,45.0,51.0,46.7,41.0,96,57,24,30.00,29.91,5,1,9,0.00
2012-9-8,79.0,67.3,44.0,53.0,48.9,41.0,90,55,35,29.97,29.85,6,2,12,0.00
2012-9-9,84.0,68.9,40.0,51.0,45.8,38.0,97,49,26,29.90,29.78,6,1,10,0.00
2012-9-10,87.0,72.4,43.0,53.0,46.7,41.0,97,46,23,29.83,29.73,5,2,12,0.00
2012-9-11,85.0,69.3,45.0,55.0,51.0,41.0,90,56,35,29.81,29.77,6,1,11,0.00
2012-9-12,81.0,67.0,43.0,55.0,51.1,42.0,97,61,33,29.98,29.90,6,2,10,0.00
2012-9-14,68.0,59.4,49.0,55.0,51.1,47.0,94,75,59,30.00,29.92,2,0,7,0.00
2012-9-15,85.0,73.3,53.0,55.0,47.0,39.0,63,41,26,30.00,29.91,5,1,11,0.00
2012-9-16,83.0,71.1,62.0,49.0,46.7,45.0,57,44,27,29.88,29.87,1,0,5,0.00
2012-9-17,69.0,60.6,54.0,49.0,48.2,47.0,78,65,49,29.92,29.89,4,2,11,0.00
2012-9-18,79.0,61.6,47.0,52.0,48.8,46.0,96,68,32,30.01,29.92,5,1,10,0.00
2012-9-20,76.0,55.9,40.0,51.0,45.6,39.0,98,73,40,29.97,29.94,3,0,8,0.00
2012-9-21,86.0,69.1,41.0,50.0,43.8,39.0,97,47,22,29.90,29.79,5,1,10,0.00
2012-9-22,89.0,72.8,42.0,48.0,45.2,39.0,93,44,22,29.84,29.78,6,1,11,0.00
2012-9-23,79.0,77.7,76.0,45.0,44.6,44.0,32,31,30,29.84,29.83,4,2,8,0.00
2012-9-24,82.0,70.9,47.0,52.0,49.4,46.0,96,50,29,29.87,29.78,5,1,10,0.00
2012-9-25,79.0,61.0,47.0,52.0,48.3,44.0,90,67,39,29.83,29.79,2,0,9,0.00
2012-9-26,81.0,73.8,61.0,56.0,54.7,52.0,72,53,42,29.77,29.74,3,1,7,0.00
2012-9-27,93.0,75.6,45.0,57.0,53.1,44.0,97,52,25,29.83,29.75,4,1,10,0.00
2012-9-28,73.0,62.7,46.0,53.0,50.3,44.0,94,67,49,29.86,29.78,6,2,12,0.00
2012-9-29,67.0,67.0,67.0,50.0,50.0,50.0,55,55,55,29.90,29.90,0,0,0,0.00
2012-9-30,95.0,69.3,46.0,47.0,40.9,38.0,75,44,15,29.97,29.91,5,1,11,0.00
2012-10-2,101.0,89.8,70.0,44.0,40.2,38.0,33,19,12,29.74,29.72,4,1,8,0.00
2012-10-3,91.0,75.2,55.0,54.0,44.4,38.0,66,37,18,29.84,29.75,6,1,12,0.00
2012-10-4,68.0,60.0,55.0,55.0,53.1,52.0,92,79,60,30.04,29.97,3,1,10,0.00
2012-10-5,68.0,59.4,47.0,54.0,50.9,45.0,98,75,59,30.05,30.01,5,1,9,0.00
2012-10-6,72.0,62.1,43.0,53.0,50.7,42.0,98,69,48,29.97,29.87,5,1,11,0.00
2012-10-7,75.0,60.8,42.0,54.0,49.4,41.0,98,69,46,29.92,29.84,4,1,12,0.01
2012-10-8,70.0,58.8,40.0,52.0,48.3,39.0,98,70,50,29.94,29.89,5,1,13,0.00
2012-10-9,72.0,61.3,43.0,51.0,48.0,42.0,98,65,44,29.94,29.85,4,1,11,0.00
2012-10-10,76.0,64.2,41.0,51.0,48.4,40.0,98,60,38,29.87,29.77,5,1,12,0.00
2012-10-11,55.0,53.1,51.0,51.0,49.6,49.0,94,88,83,29.82,29.77,3,1,11,0.01
2012-10-12,60.0,56.3,51.0,51.0,49.4,48.0,92,78,67,30.10,29.91,4,0,7,0.00
2012-10-13,75.0,59.9,42.0,58.0,51.0,41.0,98,76,50,30.21,30.08,5,0,9,0.00
2012-10-14,79.0,68.1,46.0,59.0,55.6,45.0,98,67,45,30.12,29.99,5,1,8,0.00
2012-10-15,86.0,69.9,47.0,60.0,52.9,46.0,98,61,28,30.01,29.88,5,1,10,0.00
2012-10-16,87.0,76.3,62.0,64.0,59.9,55.0,91,60,39,29.92,29.79,6,1,12,0.00
2012-10-17,93.0,75.6,43.0,48.0,36.5,26.0,92,33,10,29.83,29.73,4,0,8,0.00
2012-10-18,90.0,74.9,49.0,55.0,42.6,30.0,68,35,15,29.92,29.82,5,1,12,0.00
2012-10-19,77.0,66.7,57.0,57.0,55.4,54.0,90,69,46,29.98,29.84,3,1,8,0.00
2012-10-20,77.0,59.6,44.0,55.0,47.3,34.0,99,69,22,29.80,29.69,3,1,8,0.00
2012-10-21,68.0,52.8,38.0,41.0,36.5,30.0,91,59,25,29.82,29.74,5,1,12,0.00
2012-10-22,58.0,52.4,49.0,51.0,48.1,44.0,97,86,64,29.77,29.62,3,0,19,0.10
2012-10-23,59.0,50.0,39.0,50.0,43.0,38.0,99,79,50,29.95,29.88,3,0,10,0.00
2012-10-24,62.0,54.0,48.0,51.0,47.2,45.0,98,80,54,30.07,29.93,4,1,12,0.01
2012-10-25,67.0,59.0,48.0,51.0,46.7,43.0,98,67,41,30.18,30.12,3,0,11,0.00
2012-10-26,77.0,61.8,39.0,54.0,44.2,35.0,99,60,25,30.15,30.01,5,0,8,0.00
2012-10-27,83.0,66.9,49.0,59.0,54.2,48.0,99,69,37,30.00,29.88,3,0,8,0.00
2012-10-28,81.0,67.1,50.0,64.0,55.0,49.0,99,70,39,29.91,29.86,6,1,11,0.01
2012-10-29,79.0,62.3,45.0,59.0,53.6,44.0,99,77,47,30.02,29.95,3,0,6,0.00
2012-10-30,71.0,59.3,43.0,57.0,52.4,42.0,99,80,55,29.98,29.87,3,0,10,0.00
2012-10-31,57.0,55.6,52.0,56.0,54.6,51.0,98,96,94,29.89,29.87,1,0,7,0.80
2012-11-1,68.0,59.3,49.0,59.0,54.6,47.0,99,86,59,29.95,29.91,3,0,7,0.00
2012-11-2,66.0,56.2,41.0,55.0,50.3,40.0,99,82,60,30.00,29.94,3,0,8,0.01
2012-11-3,74.0,61.5,47.0,57.0,48.3,-99.9,99,73,50,30.16,30.02,1,0,7,0.00
2012-11-4,79.0,64.6,49.0,61.0,55.4,48.0,99,76,44,30.25,30.17,2,0,4,0.00
2012-11-5,82.0,66.4,51.0,62.0,56.9,50.0,98,75,45,30.19,30.09,2,0,5,0.00
2012-11-6,80.0,66.3,50.0,59.0,54.7,47.0,93,69,46,30.13,30.04,3,1,7,0.00
2012-11-7,62.0,54.2,43.0,55.0,50.7,42.0,98,88,74,30.08,29.96,4,1,11,0.00
2012-11-8,53.0,48.0,42.0,49.0,42.2,37.0,92,80,66,29.95,29.90,3,1,8,0.06
2012-11-9,56.0,44.6,31.0,41.0,36.8,30.0,98,76,48,29.97,29.91,2,1,7,0.01
2012-11-10,58.0,47.9,31.0,42.0,35.2,30.0,98,65,37,30.19,30.06,3,1,7,0.00
2012-11-11,57.0,47.2,31.0,43.0,38.6,30.0,98,74,50,30.40,30.35,3,1,7,0.00
2012-11-12,62.0,51.0,36.0,43.0,37.7,34.0,93,64,40,30.40,30.29,2,1,5,0.00
2012-11-13,67.0,56.4,40.0,52.0,45.1,37.0,93,68,49,30.26,30.12,2,1,4,0.00
2012-11-14,74.0,57.8,42.0,53.0,47.0,-99.9,98,73,43,30.15,30.06,3,0,8,0.00
2012-11-15,69.0,56.4,43.0,55.0,47.4,41.0,98,74,42,30.05,29.98,4,1,13,0.00
2012-11-16,57.0,54.4,52.0,53.0,51.6,49.0,97,90,83,30.02,29.92,4,0,10,0.24
2012-11-17,58.0,55.3,54.0,56.0,53.7,51.0,98,95,82,29.93,29.82,6,2,14,2.06
2012-11-18,55.0,50.3,37.0,50.0,46.0,36.0,99,86,67,30.16,30.09,4,1,8,0.35
2012-11-19,59.0,56.6,53.0,52.0,49.7,46.0,86,78,69,30.25,30.19,5,2,12,0.00
2012-11-20,57.0,56.5,55.0,56.0,55.5,54.0,98,97,97,30.12,30.00,6,3,18,1.56
2012-11-21,59.0,52.2,43.0,55.0,49.3,42.0,98,90,74,30.22,30.10,1,0,5,0.91
2012-11-22,63.0,51.3,39.0,54.0,46.6,39.0,99,85,56,30.29,30.21,2,0,5,0.05
2012-11-23,67.0,53.8,39.0,54.0,47.8,39.0,99,82,54,30.29,30.21,2,0,6,0.00
2012-11-24,69.0,55.2,40.0,53.0,46.9,39.0,99,77,44,30.21,30.08,3,0,6,0.00
2012-11-25,68.0,55.9,41.0,56.0,50.0,40.0,99,82,59,30.05,29.96,2,0,5,0.00
2012-11-26,65.0,53.8,43.0,56.0,49.9,42.0,99,87,66,30.09,30.03,2,0,5,0.00
2012-11-27,57.0,53.7,47.0,52.0,49.3,47.0,99,85,75,30.14,30.02,4,1,10,0.00
2012-11-28,55.0,53.3,51.0,54.0,51.5,49.0,97,94,89,30.04,29.83,6,2,21,1.62
2012-11-29,57.0,55.4,53.0,56.0,53.4,51.0,97,93,83,30.03,29.87,6,3,17,0.78
2012-11-30,57.0,55.3,53.0,57.0,54.4,52.0,99,98,97,29.89,29.82,9,4,19,5.17
2012-12-2,57.0,49.1,42.0,53.0,46.8,41.0,98,92,82,30.05,29.90,2,1,7,2.91
2012-12-3,59.0,50.6,37.0,52.0,48.0,37.0,100,91,75,30.20,30.14,3,0,8,0.01
2012-12-4,55.0,52.9,49.0,52.0,50.6,48.0,98,92,82,30.24,30.16,2,0,7,0.11
2012-12-5,59.0,57.2,55.0,58.0,56.9,55.0,100,99,97,30.17,30.11,2,0,6,0.88
2012-12-6,60.0,51.0,44.0,54.0,48.7,43.0,98,93,76,30.15,30.09,2,1,6,0.01
2012-12-7,60.0,48.0,35.0,49.0,43.5,35.0,100,86,57,30.15,30.08,2,0,4,0.00
2012-12-8,58.0,47.9,35.0,49.0,43.3,35.0,99,85,58,30.13,30.05,2,0,3,0.00
2012-12-9,66.0,57.0,38.0,49.0,44.1,37.0,97,64,44,30.20,30.13,327,1,327,0.00
2012-12-10,70.0,54.8,40.0,53.0,47.3,39.0,98,78,51,30.24,30.13,2,1,6,0.00
2012-12-11,59.0,49.1,40.0,51.0,46.0,39.0,99,89,70,30.05,29.86,6,2,13,0.00
2012-12-12,52.0,43.3,35.0,45.0,39.7,34.0,99,88,70,29.88,29.84,2,0,7,0.06
2012-12-13,54.0,42.4,29.0,43.0,34.9,29.0,99,78,48,29.94,29.86,3,1,8,0.00
2012-12-14,52.0,43.0,35.0,42.0,37.8,34.0,99,83,57,29.93,29.83,3,1,10,0.00
2012-12-15,44.0,40.3,32.0,43.0,39.6,32.0,99,97,94,30.03,29.94,4,1,11,0.11
2012-12-16,48.0,46.1,42.0,48.0,45.7,42.0,99,98,97,30.05,29.96,3,1,8,0.24
2012-12-17,56.0,48.6,40.0,51.0,46.1,39.0,98,91,77,30.01,29.92,3,1,8,0.70
2012-12-18,48.0,38.6,29.0,36.0,31.7,28.0,98,78,57,30.10,29.98,4,1,12,0.00
2012-12-19,52.0,40.7,26.0,36.0,29.3,25.0,96,67,36,30.26,30.17,3,1,7,0.00
2012-12-20,51.0,48.1,43.0,45.0,38.3,28.0,92,69,54,30.09,29.93,7,3,21,0.16
2012-12-21,50.0,47.7,46.0,49.0,46.8,45.0,99,97,95,29.86,29.81,6,2,19,2.79
2012-12-22,51.0,46.7,43.0,47.0,44.3,42.0,99,91,80,29.95,29.80,4,1,14,0.99
2012-12-23,55.0,50.9,47.0,54.0,49.9,46.0,99,97,95,29.88,29.77,11,3,31,2.31
2012-12-24,52.0,43.9,35.0,48.0,42.8,35.0,100,96,83,30.16,30.11,1,0,3,0.01
2012-12-25,43.0,41.8,39.0,43.0,41.1,39.0,99,98,96,30.06,29.79,7,1,16,0.59
2012-12-26,52.0,46.2,40.0,46.0,42.7,40.0,99,88,71,29.99,29.85,5,2,15,0.36
2012-12-27,55.0,45.3,35.0,44.0,38.5,34.0,97,79,55,30.11,30.06,2,1,5,0.00
2012-12-28,47.0,40.5,33.0,38.0,36.2,32.0,98,86,67,30.11,30.01,3,0,8,0.00
2012-12-29,55.0,46.3,37.0,42.0,38.5,35.0,94,75,54,30.03,29.97,2,1,6,0.02
2012-12-30,55.0,43.1,31.0,43.0,35.9,31.0,99,78,50,30.09,30.01,3,1,6,0.00
2012-12-31,53.0,41.9,29.0,40.0,34.2,26.0,97,76,47,30.25,30.18,3,1,7,0.00
2013-1-1,56.0,46.5,33.0,37.0,31.3,27.0,96,58,33,30.23,30.16,3,1,12,0.00